Location: Asheville, NC
(35.6000°N, 82.5500°W)
Time: 04:38:50

Vanguard 3 - Pass Details

Date: 11 December 2017
Orbit: 507 x 3265 km, 33.4° (Epoch: 20 March)

Event Time Altitude Azimuth Distance (km) Brightness Sun altitude
Rises 20:36:54 0° 256° (WSW) 3,661 11.4 -39.7°
Reaches altitude 10° 20:41:17 10° 227° (SW) 3,220 10.6 -40.6°
Maximum altitude 20:44:17 12° 205° (SSW) 3,389 10.5 -41.2°
Drops below altitude 10° 20:47:49 10° 184° (S) 3,973 10.7 -41.9°
Enters shadow 20:53:14 - 165° (SSE) 5,251 11.2 -43.0°
Sets 20:55:08 0° 160° (SSE) 5,739 - -43.4°
